User: anonymous   Login
Location: Tel Aviv
(32.0670°N, 34.7670°E)
Time: 14:28:54
(UTC+03:00)
Language:

DUCHIFAT 1 - Orbit

View from above orbital plane
View from above orbital plane
View from above satellite
View from above satellite

Ground track
Ground track

The orbit data is extracted from the following two-line orbital elements,

1 40021U 14033M   24111.17027018  .00027605  00000-0  19280-2 0  9995
2 40021  98.0869  92.1197 0011383 300.9388  59.0717 15.05253430535397
Epoch (UTC): 20 April 2024 04:05:11
Eccentricity: 0.0011383
inclination: 98.0869°
perigee height: 543 km
apogee height: 558 km
right ascension of ascending node: 92.1197°
argument of perigee: 300.9388°
revolutions per day: 15.05253430
mean anomaly at epoch: 59.0717°
orbit number at epoch: 53539

The dashed part of the orbit path shows where the satellite is in the earth's shadow,  

DLR